Weather Roundup
Issued by NWS Springfield, MO

Home | Current Version | Previous Version | Text Only | Print | Product List | Glossary On
Versions: 1 2 3 4 5 6 7 8 9 10 11 12 13 14 15 16 17 18 19 20 21 22 23 24 25 26 27 28 29 30 31 32 33 34 35 36 37 38 39 40 41 42 43 44 45 46 47 48 49 50
000
NZUS99 KSGF 200507
HRRSGF

HOURLY WEATHER
NATIONAL WEATHER SERVICE SPRINGFIELD MO
1200 AM CDT WED AUG 20 2014

......SGF CWA......

CITY           SKY/WX    TMP DP  RH WIND       PRES   REMARKS
SPRINGFIELD    CLEAR     77  66  68 SW6       29.90S
JOPLIN         CLEAR     81  70  69 S9        29.88S
WEST PLAINS    CLEAR     78  70  76 SW7       29.92R
ROLLA          CLEAR     73  67  81 SW5       29.86S
OSAGE BEACH    CLEAR     73  70  88 CALM      29.87R
BRANSON        CLEAR     79  70  73 SW6       29.93S

......SURROUNDING SGF CWA......

CITY           SKY/WX    TMP DP  RH WIND       PRES   REMARKS
CHANUTE        CLEAR     80  71  74 S12       29.86R
PARSONS        CLEAR     79  71  76 S5        29.87S
COFFEYVILLE    CLEAR     80  72  76 S8        29.86R
EMPORIA        CLEAR     73  66  78 S8        29.84R
GROVE OK       PTCLDY    79  72  78 CALM      29.90R
ROGERS AR      PTCLDY    81  72  74 S12       29.94R
SILOAM SPRINGS PTCLDY    79  68  69 S10       29.93S
HARRISON AR    CLEAR     79  70  74 CALM      29.94R
NEAR YELLVILLE CLEAR     81  68  65 S6        29.89S

......KANSAS AND MISSOURI......

CITY           SKY/WX    TMP DP  RH WIND       PRES   REMARKS
KANSAS CTY INT PTCLDY    79  72  79 S9        29.82R
DOWNTOWN KC    CLEAR     82  70  66 S7        29.81R
COLUMBIA       CLEAR     75  72  90 S3        29.86R
SEDALIA        CLEAR     75  71  87 S7        29.86R
ST JOSEPH      PTCLDY    77  72  84 SE3       29.81R
ST LOUIS       NOT AVBL
SPIRIT OF STL  CLEAR     72  70  93 CALM      29.83R
KIRKSVILLE     CLEAR     73  70  90 E6        29.85S
WICHITA        PTCLDY    81  67  62 S12       29.84R
TOPEKA         CLEAR     81  68  64 S5        29.81R
OLATHE         CLEAR     79  69  71 S7        29.83R

......TENNESSEE......

CITY           SKY/WX    TMP DP  RH WIND       PRES   REMARKS
MEMPHIS        CLEAR     84  76  76 SW9       29.91R HX  93
NASHVILLE      CLEAR     80  72  76 SW6       29.91R

......ARKANSAS.......

CITY           SKY/WX    TMP DP  RH WIND       PRES   REMARKS
FAYETTEVILLE   CLEAR     78  73  84 S10       29.93S
FT SMITH       CLEAR     81  73  76 CALM      29.90R
LITTLE ROCK    PTCLDY    81  75  82 SW3       29.90S

......OKLAHOMA.......

CITY           SKY/WX    TMP DP  RH WIND       PRES   REMARKS
TULSA          PTCLDY    85  72  65 S13       29.86R HX  91
PONCA CITY     CLEAR     83  69  62 S10       29.86R
MCALESTER      CLEAR     82  71  69 S7        29.90R
OKLAHOMA CITY  PTCLDY    80  67  64 S8        29.89R

......IOWA............

CITY           SKY/WX    TMP DP  RH WIND       PRES   REMARKS
DES MOINES     PTCLDY    75  66  73 CALM      29.82S
QUAD CITIES    CLEAR     67  63  87 CALM      29.82R

......ILLINOIS........

CITY           SKY/WX    TMP DP  RH WIND       PRES   REMARKS
QUINCY         CLEAR     71  69  93 CALM      29.84R
CHICAGO        PTCLDY    72  62  71 W6        29.78R




USA.gov is the U.S. government's official web portal to all federal, state and local government web resources and services.